User: anonymous   Login
Location: Vancouver
(49.2500°N, 123.1330°W)
Time: 17:02:11
(UTC-07:00)
Language:

JAS-1B - Orbit

View from above orbital plane
View from above orbital plane
View from above satellite
View from above satellite

Ground track
Ground track

The orbit data is extracted from the following two-line orbital elements,

1 20480U 90013C   15181.23234939 -.00000023  00000-0  24206-4 0  9992
2 20480 099.0668 078.9346 0539825 217.8964 300.4811 12.83405690189621
Epoch (UTC): 30 June 2015 05:34:34
Eccentricity: 0.0539825
inclination: 99.0668°
perigee height: 912 km
apogee height: 1744 km
right ascension of ascending node: 78.9346°
argument of perigee: 217.8964°
revolutions per day: 12.83405690
mean anomaly at epoch: 300.4811°
orbit number at epoch: 18962

The dashed part of the orbit path shows where the satellite is in the earth's shadow,  

DLR